This is the latest recevied weather packets stored in our database for station/object JS1SZZ-13. If no packets are shown the sender has not sent any weather packets the latest 10 day(s).
| Time | Temp. | Humidity | Pressure | Rain* | Wind** | Luminosity | Snow |
|---|---|---|---|---|---|---|---|
| 1787405820 | 22.78° C | 91% | 1016 hPa | 0 mm | - | - | - |
| 1787404920 | 22.78° C | 91% | 1016 hPa | 0 mm | - | - | - |
| 1787404019 | 22.78° C | 91% | 1016 hPa | 0 mm | - | - | - |
| 1787403118 | 23.33° C | 91% | 1016 hPa | 0 mm | - | - | - |
| 1787402219 | 23.33° C | 91% | 1016 hPa | 0 mm | - | - | - |
| 1787401319 | 23.33° C | 90% | 1015.9 hPa | 0 mm | - | - | - |
| 1787400418 | 23.33° C | 90% | 1015.9 hPa | 0 mm | - | - | - |
| 1787399518 | 23.33° C | 90% | 1015.8 hPa | 0 mm | - | - | - |
| 1787398620 | 23.33° C | 89% | 1015.8 hPa | 0 mm | - | - | - |
| 1787397719 | 23.33° C | 87% | 1015.7 hPa | 0 mm | - | - | - |
| 1787396819 | 23.89° C | 85% | 1015.6 hPa | 0 mm | - | - | - |
| 1787395918 | 24.44° C | 82% | 1015.3 hPa | 0 mm | - | - | - |
| 1787395019 | 24.44° C | 80% | 1015.3 hPa | 0 mm | - | - | - |
| 1787394120 | 25° C | 80% | 1015 hPa | 0 mm | - | - | - |
| 1787393219 | 25° C | 79% | 1014.6 hPa | 0 mm | - | - | - |
| 1787392319 | 25° C | 79% | 1014.3 hPa | 0 mm | - | - | - |
| 1787391418 | 25.56° C | 78% | 1014.1 hPa | 0 mm | - | - | - |
| 1787390519 | 25.56° C | 77% | 1014.1 hPa | 0 mm | - | - | - |
| 1787389619 | 26.11° C | 76% | 1014 hPa | 0 mm | - | - | - |
| 1787388718 | 26.67° C | 74% | 1013.9 hPa | 0 mm | - | - | - |
| 1787387819 | 27.22° C | 73% | 1013.5 hPa | 0 mm | - | - | - |
| 1787386919 | 27.78° C | 70% | 1013.6 hPa | 0 mm | - | - | - |
| 1787386019 | 27.78° C | 69% | 1013.6 hPa | 0 mm | - | - | - |
| 1787385119 | 28.33° C | 69% | 1013.4 hPa | 0 mm | - | - | - |
| 1787384218 | 27.78° C | 67% | 1013.4 hPa | 0 mm | - | - | - |
* Rain latest hour (hover to see other rain measurements)
** Current wind speed in m/s (hover to see current wind gust speed)